QPF
0.04 0.03 0.03 0.04 0.05 0.05 0.04 0.02 0.01 0.01 0.01 0.02 0.02 0.03 0.03 0.03 0.02 0.03 0.03 0.04 0.04 0.03 0.02 0.02 0.03 0.05 0.05 0.04 0.04 0.05 0.07 0.09 0.11 0.10 0.05 0.03 0.02 0.01 0.02 0.02 0.03 0.03 0.02
0.06 0.04 0.03 0.03 0.05 0.04 0.04 0.03 0.02 0.02 0.03 0.03 0.03 0.02 0.03 0.02 0.01 0.01 0.02 0.03 0.03 0.04 0.04 0.05 0.04 0.04 0.04 0.05 0.05 0.06 0.07 0.08 0.10 0.10 0.07 0.04 0.02 0.02 0.02 0.01 0.01 0.02 0.02
0.06 0.05 0.04 0.03 0.04 0.04 0.04 0.03 0.03 0.03 0.03 0.02 0.02 0.03 0.02 0.02 0.02 0.02 0.02 0.02 0.02 0.02 0.03 0.05 0.04 0.04 0.04 0.05 0.05 0.06 0.07 0.07 0.07 0.08 0.05 0.03 0.02 0.02 0.02 0.02 0.02 0.02 0.01
0.02 0.02 0.03 0.02 0.03 0.02 0.02 0.01 0.02 0.02 0.02 0.02 0.02 0.03 0.02 0.03 0.04 0.04 0.03 0.02 0.02 0.02 0.02 0.03 0.05 0.05 0.05 0.06 0.05 0.06 0.07 0.07 0.08 0.07 0.04 0.03 0.03 0.02 0.02 0.03 0.03 0.03 0.01
0.02 0.01 0.02 0.02 0.02 0.02 0.02 0.01 0.01 0.01 0.01 0.02 0.02 0.02 0.02 0.02 0.03 0.04 0.03 0.03 0.03 0.02 0.02 0.02 0.04 0.04 0.04 0.04 0.05 0.06 0.07 0.07 0.08 0.06 0.05 0.03 0.03 0.03 0.02 0.02 0.02 0.02 0.01
0.02 0.02 0.02 0.02 0.02 0.03 0.02 0.01 0.01 0.02 0.02 0.02 0.02 0.02 0.02 0.02 0.02 0.03 0.03 0.03 0.03 0.03 0.03 0.02 0.03 0.03 0.03 0.04 0.04 0.05 0.05 0.06 0.06 0.05 0.04 0.04 0.04 0.04 0.03 0.03 0.02 0.02 0.01
0.02 0.02 0.03 0.03 0.03 0.04 0.03 0.02 0.02 0.03 0.03 0.01 0.01 0.01 0.01 0.01 0.01 0.02 0.03 0.02 0.02 0.02 0.03 0.03 0.03 0.02 0.03 0.04 0.04 0.04 0.04 0.05 0.05 0.05 0.04 0.04 0.03 0.04 0.03 0.03 0.02 0.02 0.02
0.04 0.03 0.03 0.04 0.05 0.05 0.04 0.03 0.03 0.03 0.03 0.02 0.02 0.01 0.01 0.01 0.01 0.02 0.02 0.02 0.02 0.02 0.02 0.02 0.02 0.02 0.02 0.03 0.04 0.05 0.05 0.04 0.04 0.04 0.04 0.04 0.03 0.03 0.03 0.02 0.03 0.03 0.02
0.03 0.02 0.02 0.04 0.05 0.05 0.04 0.04 0.03 0.03 0.03 0.03 0.02 0.01 0.01 0.01 0.02 0.02 0.02 0.02 0.02 0.02 0.01 0.01 0.01 0.01 0.01 0.02 0.02 0.03 0.04 0.05 0.05 0.05 0.05 0.04 0.04 0.04 0.04 0.03 0.03 0.02 0.02
0.02 0.02 0.01 0.01 0.03 0.05 0.07 0.07 0.05 0.03 0.04 0.04 0.03 0.02 0.02 0.02 0.02 0.02 0.02 0.01 0.01 0.01 0.01 0.01 0.01 0.01 0.01 0.01 0.02 0.03 0.04 0.05 0.05 0.06 0.05 0.05 0.04 0.04 0.04 0.04 0.04 0.04 0.04
0.03 0.02 0.02 0.01 0.01 0.02 0.04 0.06 0.07 0.05 0.03 0.03 0.03 0.03 0.02 0.02 0.02 0.02 0.02 0.01 0.01 0.01 0.01 0.01 0.01 0.01 0.01 0.01 0.01 0.02 0.03 0.05 0.05 0.04 0.03 0.03 0.03 0.03 0.04 0.04 0.04 0.03 0.03
0.06 0.05 0.02 0.02 0.02 0.02 0.02 0.03 0.04 0.04 0.04 0.03 0.03 0.03 0.02 0.02 0.02 0.02 0.02 0.02 0.01 0.01 0.02 0.02 0.02 0.01 0.01 0.01 0.01 0.01 0.03 0.05 0.04 0.04 0.02 0.02 0.02 0.02 0.02 0.03 0.03 0.03 0.03
0.10 0.07 0.04 0.02 0.02 0.02 0.02 0.03 0.03 0.02 0.03 0.03 0.03 0.03 0.03 0.03 0.03 0.03 0.02 0.01 0.01 0.01 0.02 0.02 0.02 0.01 0.01 0.01 0.01 0.02 0.03 0.03 0.03 0.03 0.03 0.02 0.02 0.02 0.02 0.02 0.03 0.04 0.03
0.07 0.08 0.07 0.05 0.03 0.02 0.02 0.02 0.02 0.03 0.03 0.03 0.03 0.03 0.03 0.03 0.03 0.03 0.03 0.02 0.04 0.04 0.02 0.03 0.03 0.02 0.02 0.01 0.01 0.02 0.02 0.01 0.02 0.02 0.02 0.02 0.02 0.02 0.02 0.02 0.02 0.02 0.02
0.04 0.03 0.03 0.03 0.02 0.01 0.01 0.02 0.02 0.02 0.03 0.03 0.04 0.04 0.04 0.04 0.04 0.04 0.05 0.06 0.08 0.07 0.04 0.03 0.02 0.02 0.02 0.01 0.02 0.02 0.01 0.01 0.01 0.03 0.03 0.02 0.02 0.02 0.02 0.01 0.01 0.02 0.02
0.03 0.01 0.01 0.01 0.01 0.01 0.02 0.02 0.02 0.02 0.03 0.03 0.04 0.04 0.04 0.05 0.05 0.04 0.04 0.06 0.07 0.07 0.05 0.03 0.02 0.01 0.01 0.01 0.02 0.02 0.02 0.01 0.01 0.02 0.02 0.03 0.02 0.02 0.01 0.01 0.01 0.02 0.02
0.04 0.02 0.01 0.01 0.01 0.01 0.01 0.01 0.01 0.01 0.02 0.02 0.03 0.03 0.04 0.04 0.05 0.05 0.05 0.05 0.05 0.05 0.04 0.04 0.03 0.02 0.01 0.02 0.03 0.06 0.04 0.01 0.01 0.02 0.02 0.02 0.02 0.01 0.01 0.01 0.01 0.01 0.01
0.04 0.02 0.01 0.01 0.00 0.00 0.01 0.01 0.01 0.02 0.01 0.01 0.02 0.02 0.03 0.03 0.05 0.05 0.06 0.05 0.03 0.03 0.03 0.04 0.04 0.04 0.04 0.04 0.05 0.06 0.03 0.01 0.01 0.03 0.02 0.02 0.02 0.01 0.01 0.01 0.00 0.00 0.01
0.03 0.02 0.01 0.00 0.01 0.01 0.01 0.01 0.01 0.02 0.02 0.02 0.02 0.02 0.02 0.02 0.02 0.03 0.03 0.03 0.03 0.03 0.03 0.03 0.03 0.05 0.04 0.03 0.02 0.02 0.02 0.03 0.02 0.03 0.03 0.02 0.02 0.02 0.01 0.01 0.00 0.01 0.01
0.02 0.01 0.01 0.01 0.01 0.01 0.02 0.02 0.02 0.02 0.02 0.02 0.02 0.02 0.01 0.02 0.01 0.01 0.02 0.02 0.01 0.02 0.02 0.03 0.02 0.03 0.03 0.03 0.02 0.03 0.03 0.04 0.03 0.03 0.04 0.04 0.03 0.02 0.02 0.01 0.01 0.01 0.01
0.02 0.02 0.01 0.01 0.01 0.01 0.01 0.01 0.01 0.02 0.03 0.03 0.03 0.02 0.02 0.02 0.02 0.02 0.01 0.01 0.01 0.01 0.01 0.01 0.01 0.01 0.02 0.02 0.02 0.02 0.03 0.04 0.04 0.03 0.04 0.05 0.04 0.03 0.03 0.02 0.02 0.01 0.01
0.01 0.02 0.01 0.01 0.01 0.01 0.01 0.01 0.01 0.01 0.02 0.02 0.02 0.02 0.03 0.02 0.02 0.02 0.02 0.02 0.02 0.02 0.02 0.01 0.01 0.01 0.01 0.01 0.02 0.02 0.03 0.04 0.04 0.04 0.04 0.04 0.04 0.04 0.04 0.03 0.02 0.02 0.02
0.02 0.01 0.01 0.00 0.00 0.00 0.01 0.01 0.01 0.01 0.02 0.02 0.03 0.03 0.04 0.04 0.03 0.03 0.03 0.03 0.03 0.03 0.02 0.02 0.03 0.02 0.02 0.02 0.02 0.03 0.03 0.03 0.04 0.04 0.04 0.05 0.05 0.05 0.06 0.06 0.05 0.04 0.03
0.01 0.01 0.01 0.01 0.01 0.01 0.01 0.01 0.01 0.01 0.01 0.02 0.02 0.02 0.03 0.03 0.04 0.03 0.03 0.03 0.03 0.02 0.02 0.02 0.02 0.02 0.03 0.03 0.02 0.01 0.01 0.02 0.02 0.03 0.04 0.05 0.06 0.06 0.06 0.06 0.06 0.05 0.03
0.01 0.01 0.01 0.01 0.01 0.02 0.02 0.01 0.01 0.01 0.01 0.01 0.01 0.02 0.02 0.03 0.03 0.04 0.03 0.03 0.02 0.02 0.02 0.01 0.01 0.01 0.02 0.02 0.02 0.02 0.02 0.02 0.01 0.01 0.02 0.03 0.04 0.05 0.06 0.05 0.04 0.04 0.03
0.01 0.01 0.01 0.01 0.01 0.01 0.02 0.02 0.01 0.01 0.01 0.01 0.01 0.02 0.02 0.02 0.02 0.02 0.02 0.03 0.03 0.02 0.02 0.02 0.01 0.01 0.01 0.01 0.02 0.03 0.03 0.02 0.02 0.02 0.02 0.02 0.03 0.04 0.04 0.04 0.04 0.03 0.03
MSLP
1019.74 1019.40 1019.03 1018.59 1018.09 1017.52 1016.89 1016.24 1015.59 1014.96 1014.39 1013.87 1013.40 1012.97 1012.54 1012.11 1011.66 1011.18 1010.69 1010.20 1009.71 1009.27 1008.88 1008.54 1008.26 1008.03 1007.83 1007.66 1007.51 1007.39 1007.31 1007.28 1007.34 1007.50 1007.76 1008.14 1008.62 1009.20 1009.85 1010.55 1011.28 1012.03 1012.78
1019.58 1019.22 1018.82 1018.37 1017.87 1017.30 1016.68 1016.03 1015.37 1014.72 1014.09 1013.50 1012.94 1012.40 1011.87 1011.34 1010.80 1010.27 1009.73 1009.23 1008.76 1008.35 1008.01 1007.73 1007.49 1007.30 1007.13 1006.97 1006.83 1006.70 1006.60 1006.57 1006.61 1006.75 1007.01 1007.39 1007.89 1008.47 1009.14 1009.86 1010.62 1011.39 1012.17
1019.52 1019.13 1018.70 1018.23 1017.71 1017.13 1016.50 1015.84 1015.17 1014.48 1013.81 1013.15 1012.49 1011.85 1011.21 1010.58 1009.95 1009.33 1008.76 1008.23 1007.78 1007.41 1007.11 1006.89 1006.72 1006.59 1006.47 1006.34 1006.22 1006.09 1005.99 1005.93 1005.95 1006.08 1006.32 1006.68 1007.17 1007.76 1008.43 1009.16 1009.92 1010.71 1011.51
1019.52 1019.10 1018.64 1018.13 1017.58 1016.98 1016.34 1015.66 1014.96 1014.25 1013.53 1012.81 1012.08 1011.33 1010.59 1009.84 1009.11 1008.42 1007.78 1007.23 1006.78 1006.43 1006.18 1006.03 1005.93 1005.87 1005.81 1005.74 1005.64 1005.54 1005.44 1005.38 1005.38 1005.47 1005.68 1006.02 1006.48 1007.05 1007.71 1008.43 1009.20 1009.99 1010.79
1019.54 1019.09 1018.59 1018.04 1017.45 1016.81 1016.14 1015.45 1014.73 1014.00 1013.24 1012.46 1011.66 1010.83 1009.99 1009.14 1008.31 1007.52 1006.82 1006.22 1005.75 1005.42 1005.21 1005.11 1005.08 1005.09 1005.11 1005.10 1005.06 1004.99 1004.91 1004.84 1004.84 1004.91 1005.09 1005.39 1005.82 1006.35 1006.98 1007.68 1008.43 1009.21 1010.00
1019.53 1019.05 1018.51 1017.92 1017.28 1016.61 1015.91 1015.20 1014.46 1013.71 1012.93 1012.11 1011.26 1010.36 1009.42 1008.47 1007.54 1006.66 1005.87 1005.21 1004.70 1004.35 1004.16 1004.10 1004.13 1004.21 1004.30 1004.36 1004.39 1004.37 1004.33 1004.28 1004.27 1004.33 1004.49 1004.77 1005.16 1005.66 1006.26 1006.92 1007.64 1008.39 1009.16
1019.46 1018.97 1018.39 1017.76 1017.08 1016.37 1015.65 1014.91 1014.17 1013.41 1012.62 1011.78 1010.89 1009.93 1008.92 1007.88 1006.84 1005.85 1004.96 1004.21 1003.64 1003.25 1003.04 1002.98 1003.05 1003.18 1003.34 1003.48 1003.57 1003.62 1003.63 1003.63 1003.65 1003.72 1003.87 1004.13 1004.50 1004.97 1005.53 1006.17 1006.84 1007.55 1008.28
1019.34 1018.83 1018.23 1017.56 1016.85 1016.12 1015.38 1014.65 1013.91 1013.16 1012.37 1011.53 1010.60 1009.60 1008.52 1007.40 1006.26 1005.16 1004.15 1003.29 1002.62 1002.16 1001.90 1001.82 1001.88 1002.04 1002.24 1002.45 1002.61 1002.73 1002.81 1002.86 1002.93 1003.03 1003.21 1003.48 1003.84 1004.30 1004.84 1005.44 1006.08 1006.74 1007.41
1019.17 1018.66 1018.04 1017.36 1016.64 1015.91 1015.17 1014.45 1013.73 1013.00 1012.23 1011.40 1010.47 1009.44 1008.31 1007.10 1005.87 1004.66 1003.53 1002.54 1001.75 1001.18 1000.84 1000.70 1000.73 1000.89 1001.11 1001.35 1001.57 1001.76 1001.91 1002.03 1002.16 1002.32 1002.53 1002.83 1003.22 1003.68 1004.22 1004.79 1005.40 1006.01 1006.62
1018.99 1018.48 1017.87 1017.20 1016.48 1015.77 1015.06 1014.37 1013.69 1013.00 1012.27 1011.46 1010.54 1009.49 1008.33 1007.07 1005.75 1004.43 1003.19 1002.08 1001.16 1000.47 1000.01 999.79 999.75 999.87 1000.08 1000.33 1000.59 1000.82 1001.03 1001.22 1001.41 1001.62 1001.90 1002.24 1002.66 1003.14 1003.68 1004.26 1004.84 1005.41 1005.97
1018.79 1018.30 1017.72 1017.07 1016.40 1015.72 1015.06 1014.42 1013.80 1013.17 1012.49 1011.72 1010.83 1009.80 1008.62 1007.33 1005.95 1004.56 1003.21 1001.99 1000.95 1000.14 999.57 999.23 999.11 999.16 999.32 999.55 999.81 1000.06 1000.30 1000.53 1000.77 1001.04 1001.35 1001.74 1002.19 1002.71 1003.26 1003.84 1004.41 1004.96 1005.47
1018.58 1018.13 1017.59 1016.99 1016.36 1015.75 1015.16 1014.59 1014.04 1013.48 1012.86 1012.16 1011.32 1010.32 1009.17 1007.87 1006.48 1005.04 1003.64 1002.33 1001.20 1000.28 999.60 999.16 998.94 998.90 998.99 999.17 999.39 999.62 999.85 1000.09 1000.34 1000.63 1000.97 1001.37 1001.84 1002.38 1002.94 1003.53 1004.09 1004.62 1005.10
1018.34 1017.93 1017.45 1016.91 1016.35 1015.81 1015.29 1014.81 1014.34 1013.86 1013.33 1012.70 1011.93 1011.00 1009.90 1008.64 1007.27 1005.84 1004.42 1003.09 1001.90 1000.91 1000.16 999.63 999.32 999.18 999.19 999.29 999.44 999.61 999.79 999.98 1000.19 1000.45 1000.76 1001.14 1001.60 1002.12 1002.69 1003.27 1003.83 1004.36 1004.83
1018.05 1017.69 1017.27 1016.80 1016.32 1015.85 1015.41 1015.01 1014.62 1014.23 1013.78 1013.24 1012.56 1011.72 1010.70 1009.53 1008.23 1006.86 1005.48 1004.17 1002.99 1001.98 1001.18 1000.60 1000.22 1000.01 999.92 999.92 999.98 1000.05 1000.13 1000.22 1000.34 1000.50 1000.73 1001.04 1001.43 1001.90 1002.43 1002.98 1003.54 1004.07 1004.54
1017.68 1017.38 1017.02 1016.61 1016.20 1015.81 1015.44 1015.11 1014.81 1014.49 1014.13 1013.68 1013.10 1012.37 1011.47 1010.41 1009.22 1007.97 1006.69 1005.46 1004.34 1003.37 1002.58 1001.98 1001.57 1001.29 1001.13 1001.03 1000.97 1000.92 1000.86 1000.81 1000.78 1000.79 1000.87 1001.03 1001.30 1001.66 1002.10 1002.60 1003.13 1003.65 1004.13
1017.24 1017.00 1016.69 1016.35 1015.99 1015.66 1015.35 1015.09 1014.84 1014.60 1014.32 1013.96 1013.49 1012.87 1012.10 1011.19 1010.15 1009.04 1007.91 1006.80 1005.79 1004.91 1004.19 1003.63 1003.21 1002.91 1002.69 1002.51 1002.34 1002.15 1001.93 1001.70 1001.47 1001.27 1001.14 1001.10 1001.17 1001.36 1001.67 1002.06 1002.52 1003.02 1003.51
1016.75 1016.56 1016.30 1016.00 1015.70 1015.41 1015.15 1014.93 1014.74 1014.55 1014.34 1014.07 1013.70 1013.20 1012.57 1011.81 1010.94 1010.00 1009.03 1008.09 1007.23 1006.48 1005.85 1005.36 1004.98 1004.69 1004.44 1004.20 1003.93 1003.60 1003.22 1002.79 1002.34 1001.91 1001.52 1001.23 1001.06 1001.03 1001.13 1001.38 1001.72 1002.16 1002.64
1016.22 1016.07 1015.86 1015.60 1015.34 1015.08 1014.86 1014.67 1014.52 1014.38 1014.23 1014.03 1013.76 1013.38 1012.88 1012.27 1011.56 1010.80 1010.01 1009.25 1008.55 1007.95 1007.45 1007.05 1006.75 1006.49 1006.24 1005.97 1005.62 1005.18 1004.66 1004.04 1003.36 1002.68 1002.02 1001.45 1000.99 1000.70 1000.57 1000.60 1000.80 1001.12 1001.56
1015.66 1015.56 1015.39 1015.17 1014.94 1014.71 1014.52 1014.36 1014.24 1014.15 1014.04 1013.91 1013.72 1013.44 1013.06 1012.59 1012.04 1011.44 1010.83 1010.23 1009.70 1009.25 1008.89 1008.60 1008.39 1008.19 1007.97 1007.69 1007.31 1006.79 1006.14 1005.36 1004.50 1003.58 1002.66 1001.80 1001.06 1000.47 1000.07 999.87 999.87 1000.04 1000.38
1015.08 1015.02 1014.89 1014.71 1014.51 1014.32 1014.15 1014.03 1013.94 1013.88 1013.82 1013.75 1013.63 1013.44 1013.17 1012.82 1012.41 1011.95 1011.48 1011.04 1010.66 1010.35 1010.11 1009.95 1009.83 1009.70 1009.54 1009.28 1008.89 1008.34 1007.61 1006.72 1005.70 1004.59 1003.45 1002.34 1001.33 1000.47 999.79 999.34 999.11 999.10 999.29
1014.45 1014.43 1014.34 1014.20 1014.03 1013.88 1013.75 1013.65 1013.60 1013.58 1013.57 1013.55 1013.49 1013.38 1013.21 1012.96 1012.66 1012.33 1011.98 1011.67 1011.41 1011.22 1011.10 1011.04 1011.01 1010.96 1010.86 1010.66 1010.29 1009.74 1009.00 1008.06 1006.95 1005.71 1004.41 1003.11 1001.88 1000.78 999.86 999.16 998.70 998.48 998.50
1013.74 1013.77 1013.71 1013.61 1013.48 1013.36 1013.27 1013.22 1013.21 1013.23 1013.26 1013.29 1013.30 1013.26 1013.16 1013.00 1012.79 1012.56 1012.32 1012.11 1011.95 1011.85 1011.82 1011.84 1011.89 1011.92 1011.90 1011.76 1011.45 1010.95 1010.23 1009.30 1008.17 1006.90 1005.52 1004.11 1002.73 1001.47 1000.36 999.46 998.79 998.37 998.19
1012.96 1013.00 1012.97 1012.91 1012.82 1012.74 1012.69 1012.68 1012.70 1012.77 1012.85 1012.93 1012.99 1013.01 1012.97 1012.89 1012.77 1012.61 1012.46 1012.32 1012.23 1012.21 1012.24 1012.33 1012.45 1012.55 1012.59 1012.52 1012.29 1011.88 1011.24 1010.38 1009.32 1008.08 1006.71 1005.29 1003.87 1002.52 1001.31 1000.27 999.45 998.86 998.52
1012.10 1012.16 1012.15 1012.11 1012.05 1012.01 1011.99 1012.01 1012.07 1012.17 1012.29 1012.42 1012.53 1012.60 1012.63 1012.61 1012.55 1012.47 1012.38 1012.31 1012.28 1012.30 1012.38 1012.52 1012.67 1012.83 1012.93 1012.94 1012.80 1012.48 1011.96 1011.22 1010.28 1009.16 1007.90 1006.55 1005.19 1003.86 1002.63 1001.55 1000.65 999.96 999.48
1011.26 1011.31 1011.31 1011.28 1011.23 1011.21 1011.21 1011.26 1011.34 1011.47 1011.62 1011.78 1011.93 1012.05 1012.13 1012.17 1012.17 1012.14 1012.11 1012.09 1012.09 1012.15 1012.27 1012.42 1012.61 1012.80 1012.95 1013.03 1012.97 1012.77 1012.38 1011.79 1011.02 1010.07 1008.97 1007.79 1006.56 1005.34 1004.19 1003.15 1002.26 1001.53 1000.99
1010.54 1010.57 1010.55 1010.52 1010.48 1010.46 1010.46 1010.51 1010.61 1010.74 1010.91 1011.09 1011.27 1011.42 1011.54 1011.63 1011.68 1011.70 1011.71 1011.72 1011.77 1011.84 1011.97 1012.14 1012.33 1012.54 1012.72 1012.84 1012.86 1012.76 1012.50 1012.08 1011.49 1010.74 1009.86 1008.88 1007.85 1006.82 1005.82 1004.89 1004.07 1003.39 1002.85
Thickness
5754 5751 5747 5745 5743 5741 5739 5738 5735 5732 5728 5726 5725 5723 5721 5719 5717 5715 5715 5713 5712 5711 5710 5709 5708 5708 5708 5708 5707 5706 5704 5702 5697 5698 5698 5696 5693 5692 5692 5690 5690 5687 5685
5752 5748 5744 5742 5740 5738 5736 5735 5732 5729 5726 5724 5722 5720 5718 5716 5713 5712 5710 5710 5708 5707 5707 5705 5705 5705 5702 5702 5701 5701 5700 5698 5695 5691 5691 5692 5690 5689 5687 5686 5687 5685 5682
5750 5746 5742 5739 5737 5734 5733 5732 5729 5726 5723 5721 5719 5717 5714 5713 5710 5708 5707 5706 5705 5704 5703 5701 5701 5700 5698 5698 5696 5696 5696 5695 5692 5689 5688 5688 5687 5685 5683 5683 5682 5679 5679
5745 5742 5738 5736 5734 5732 5731 5729 5726 5723 5720 5718 5716 5714 5711 5710 5708 5706 5704 5702 5700 5700 5699 5698 5697 5696 5694 5693 5692 5691 5691 5689 5687 5686 5685 5684 5682 5681 5679 5678 5676 5675 5674
5740 5738 5735 5733 5731 5729 5727 5725 5722 5719 5717 5714 5712 5710 5708 5706 5704 5702 5700 5699 5697 5695 5695 5694 5693 5690 5688 5688 5689 5688 5687 5685 5683 5682 5681 5680 5678 5675 5674 5675 5672 5671 5670
5735 5734 5732 5730 5727 5725 5723 5720 5718 5715 5713 5710 5708 5706 5703 5703 5697 5694 5694 5695 5693 5691 5690 5689 5689 5687 5685 5682 5681 5680 5679 5679 5679 5677 5677 5674 5671 5671 5670 5669 5668 5666 5663
5730 5729 5727 5725 5722 5720 5719 5716 5713 5710 5708 5705 5703 5702 5699 5695 5691 5689 5687 5689 5689 5688 5686 5685 5686 5685 5681 5680 5678 5675 5674 5672 5671 5672 5671 5669 5668 5667 5665 5663 5661 5660 5658
5724 5723 5722 5720 5717 5715 5713 5710 5707 5705 5702 5700 5699 5697 5694 5691 5686 5684 5683 5684 5685 5684 5682 5680 5679 5677 5676 5674 5674 5672 5671 5669 5668 5667 5665 5664 5664 5662 5660 5658 5656 5655 5654
5718 5716 5715 5714 5711 5709 5707 5704 5702 5699 5697 5696 5694 5692 5690 5686 5681 5680 5678 5681 5680 5678 5677 5675 5674 5671 5666 5665 5667 5666 5665 5664 5662 5660 5658 5656 5654 5653 5652 5653 5652 5651 5650
5711 5710 5709 5707 5705 5703 5700 5697 5696 5694 5693 5692 5690 5687 5685 5682 5677 5674 5673 5678 5675 5674 5672 5670 5665 5663 5659 5658 5661 5660 5659 5658 5658 5656 5653 5651 5650 5649 5647 5647 5647 5647 5646
5706 5704 5701 5699 5697 5696 5693 5691 5689 5688 5687 5686 5684 5681 5679 5677 5672 5669 5667 5671 5671 5670 5669 5667 5663 5656 5653 5652 5652 5653 5651 5651 5652 5651 5650 5648 5647 5645 5644 5642 5641 5640 5640
5698 5695 5693 5691 5690 5689 5685 5684 5683 5681 5679 5678 5676 5675 5674 5672 5668 5665 5662 5661 5662 5663 5663 5662 5657 5650 5648 5646 5646 5644 5643 5643 5647 5647 5645 5643 5642 5641 5639 5637 5635 5634 5632
5688 5687 5684 5682 5681 5679 5678 5677 5676 5675 5674 5673 5672 5670 5669 5667 5664 5659 5656 5655 5654 5655 5656 5651 5647 5644 5642 5642 5639 5638 5638 5640 5641 5640 5639 5638 5637 5635 5633 5631 5629 5627 5626
5679 5678 5677 5674 5672 5671 5670 5671 5670 5669 5668 5667 5666 5664 5662 5661 5659 5657 5655 5652 5647 5648 5647 5644 5640 5638 5638 5636 5636 5636 5636 5636 5635 5634 5633 5632 5631 5629 5627 5626 5624 5623 5621
5671 5670 5669 5668 5666 5663 5663 5662 5662 5661 5660 5658 5658 5657 5655 5653 5649 5646 5647 5647 5645 5643 5640 5640 5639 5638 5637 5636 5636 5635 5633 5631 5629 5628 5627 5625 5624 5622 5621 5620 5618 5617 5616
5663 5663 5663 5662 5660 5659 5657 5655 5652 5651 5649 5647 5645 5644 5645 5641 5638 5637 5636 5634 5632 5630 5631 5635 5634 5633 5633 5632 5631 5629 5627 5626 5624 5623 5621 5620 5618 5617 5615 5614 5613 5612 5611
5657 5656 5656 5656 5655 5654 5652 5651 5649 5645 5641 5639 5637 5636 5634 5632 5630 5629 5627 5626 5624 5622 5626 5630 5629 5628 5627 5627 5626 5624 5622 5621 5619 5617 5616 5615 5613 5612 5610 5609 5607 5606 5606
5651 5650 5650 5650 5650 5649 5648 5646 5645 5643 5641 5639 5634 5629 5628 5625 5623 5622 5620 5619 5621 5619 5622 5624 5623 5623 5622 5621 5620 5619 5617 5615 5613 5611 5610 5609 5607 5606 5604 5603 5601 5599 5599
5645 5645 5644 5644 5644 5644 5643 5642 5641 5638 5637 5635 5634 5629 5622 5620 5617 5615 5613 5616 5619 5618 5618 5618 5618 5617 5616 5615 5613 5612 5611 5609 5606 5605 5603 5602 5601 5600 5598 5596 5595 5591 5590
5638 5636 5636 5637 5638 5638 5636 5635 5633 5632 5630 5629 5627 5625 5622 5618 5617 5614 5611 5612 5612 5613 5612 5612 5611 5610 5609 5608 5607 5606 5604 5602 5600 5598 5597 5595 5594 5593 5591 5590 5589 5588 5587
5634 5632 5628 5630 5631 5631 5629 5628 5626 5625 5623 5622 5620 5617 5612 5614 5613 5611 5609 5608 5606 5606 5605 5605 5604 5603 5602 5601 5600 5599 5597 5596 5595 5593 5591 5589 5588 5587 5586 5585 5584 5583 5582
5628 5628 5626 5624 5624 5623 5622 5621 5620 5619 5617 5615 5613 5611 5604 5606 5607 5606 5604 5602 5601 5599 5598 5597 5596 5595 5594 5593 5592 5591 5590 5589 5587 5585 5583 5582 5581 5580 5580 5580 5579 5578 5576
5620 5620 5619 5617 5616 5613 5613 5614 5613 5612 5611 5609 5607 5604 5602 5600 5599 5597 5597 5595 5593 5591 5590 5588 5588 5587 5586 5585 5583 5583 5582 5580 5578 5577 5575 5574 5573 5573 5573 5573 5572 5572 5571
5612 5612 5611 5610 5609 5608 5607 5606 5605 5604 5603 5601 5598 5596 5595 5593 5592 5590 5589 5588 5586 5584 5583 5581 5580 5580 5578 5576 5576 5575 5573 5570 5569 5569 5568 5567 5567 5567 5566 5566 5565 5565 5564
5604 5604 5603 5602 5602 5601 5599 5597 5597 5596 5594 5592 5591 5589 5588 5586 5585 5583 5582 5580 5579 5577 5576 5574 5573 5572 5571 5569 5568 5567 5564 5561 5560 5561 5561 5561 5560 5560 5559 5559 5558 5558 5558
5595 5595 5595 5594 5593 5592 5590 5589 5588 5586 5585 5583 5582 5581 5580 5578 5577 5576 5574 5572 5571 5570 5569 5568 5566 5565 5564 5563 5561 5558 5556 5554 5553 5552 5553 5555 5555 5554 5553 5552 5551 5551 5551